Perry, IA

12:16 PM CDT on September 21, 2017 (GMT -0500)
Perry Municipal

Weather History for KPRO - July, 2012

Change the Weather History Date:

Saturday, July 28, 2012

  Actual Average Record
Temperature  
Mean Temperature 70 °F -  
Max Temperature 80 °F 83 °F 101 °F (1955)
Min Temperature 60 °F 61 °F 46 °F (2013)
Cooling Degree Days 5    
Growing Degree Days 20 (Base 50)    
Moisture  
Dew Point 62 °F    
Average Humidity 73    
Maximum Humidity 89    
Minimum Humidity 56    
Precipitation  
Precipitation 0.00 in - - ()
Sea Level Pressure  
Sea Level Pressure 30.11 in    
Wind  
Wind Speed 3 mph (ESE)    
Max Wind Speed 13 mph    
Max Gust Speed 18 mph    
Visibility 10 miles    
Events Rain    
Averages and records for this station are not official NWS values.
T = Trace of Precipitation, MM = Missing Value Source: NWS Daily Summary

Daily Weather History Graph

Daily Weather History Graph

Search for Another Location

Airport or City:

Trip Planner

Search our weather history database for the weather conditions in past years. The results will help you decide how hot, cold, wet, or windy it might be!

Date:

Astronomy

Jul. 28, 2012 Rise Set
Actual Time 6:07 AM CDT 8:38 PM CDT
Civil Twilight 5:35 AM CDT 9:10 PM CDT
Nautical Twilight 4:55 AM CDT 9:49 PM CDT
Astronomical Twilight 4:10 AM CDT 10:34 PM CDT
Moon 4:44 PM CDT (7/28) 1:26 AM CDT (7/28)
Length of Visible Light 15h 34m
Length of Day
14h 31m
Waxing Gibbous, 76% of the Moon is Illuminated
Jul 28
Waxing Gibbous
Aug 1
Full
Aug 9
Last Quarter
Aug 17
New
Aug 24
First Quarter

Hourly Weather History & Observations

Time (CDT) Temp. Heat Index Dew Point Humidity Pressure Visibility Wind Dir Wind Speed Gust Speed Precip Events Conditions
12:35 AM 64.4 °F - 59.4 °F 84% 30.11 in 10.0 mi NW 3.5 mph - N/A   Unknown
12:55 AM 63.3 °F - 58.6 °F 85% 30.11 in 10.0 mi Calm Calm - N/A   Unknown
1:15 AM 62.6 °F - 58.3 °F 86% 30.10 in 10.0 mi North 3.5 mph - N/A   Unknown
1:35 AM 61.9 °F - 57.7 °F 86% 30.10 in 10.0 mi Calm Calm - N/A   Unknown
1:55 AM 61.7 °F - 57.6 °F 86% 30.10 in 10.0 mi Calm Calm - N/A   Unknown
2:15 AM 62.4 °F - 58.3 °F 86% 30.10 in 10.0 mi NE 3.5 mph - N/A   Unknown
2:35 AM 62.8 °F - 57.9 °F 84% 30.11 in 10.0 mi Calm Calm - N/A   Unknown
2:55 AM 62.4 °F - 57.9 °F 85% 30.10 in 10.0 mi Calm Calm - N/A   Unknown
3:15 AM 61.3 °F - 57.4 °F 87% 30.10 in 10.0 mi Calm Calm - N/A   Unknown
3:35 AM 61.5 °F - 57.9 °F 88% 30.10 in 10.0 mi Calm Calm - N/A   Unknown
3:55 AM 62.6 °F - 58.3 °F 86% 30.10 in 10.0 mi Calm Calm - N/A   Unknown
4:15 AM 61.2 °F - 57.6 °F 88% 30.10 in 10.0 mi Calm Calm - N/A   Unknown
4:35 AM 60.8 °F - 57.2 °F 88% 30.11 in 10.0 mi Calm Calm - N/A   Unknown
4:55 AM 61.0 °F - 57.4 °F 88% 30.12 in 10.0 mi Calm Calm - N/A   Unknown
5:15 AM 60.8 °F - 57.4 °F 88% 30.13 in 10.0 mi WNW 3.5 mph - N/A   Unknown
5:35 AM 60.8 °F - 57.2 °F 88% 30.13 in 10.0 mi Calm Calm - N/A   Unknown
5:55 AM 61.0 °F - 57.6 °F 88% 30.14 in 10.0 mi West 3.5 mph - N/A   Unknown
6:15 AM 61.2 °F - 57.9 °F 89% 30.14 in 10.0 mi SW 3.5 mph - N/A   Unknown
6:35 AM 62.4 °F - 59.0 °F 89% 30.14 in 10.0 mi Calm Calm - N/A   Unknown
6:55 AM 62.2 °F - 58.6 °F 88% 30.15 in 10.0 mi NW 3.5 mph - N/A   Unknown
7:15 AM 63.0 °F - 59.4 °F 88% 30.17 in 10.0 mi Calm Calm - N/A   Unknown
7:35 AM 65.1 °F - 61.2 °F 87% 30.16 in 10.0 mi Calm Calm - N/A   Unknown
7:55 AM 65.8 °F - 61.0 °F 84% 30.15 in 10.0 mi Calm Calm - N/A   Unknown
8:15 AM 67.1 °F - 61.9 °F 83% 30.16 in 10.0 mi Calm Calm - N/A   Unknown
8:35 AM 69.1 °F - 62.6 °F 80% 30.15 in 10.0 mi ESE 3.5 mph - N/A   Unknown
8:55 AM 70.9 °F - 63.1 °F 76% 30.15 in 10.0 mi ESE 5.8 mph - N/A   Unknown
9:15 AM 71.4 °F - 62.8 °F 74% 30.16 in 10.0 mi ESE 4.6 mph - N/A   Unknown
9:35 AM 72.3 °F - 62.6 °F 71% 30.17 in 10.0 mi Calm Calm - N/A   Unknown
9:55 AM 72.5 °F - 63.5 °F 73% 30.14 in 10.0 mi SE 4.6 mph - N/A Rain Light Rain
10:15 AM 73.8 °F - 63.9 °F 71% 30.17 in 10.0 mi Calm Calm - N/A   Unknown
10:35 AM 74.3 °F - 64.2 °F 71% 30.17 in 10.0 mi South 3.5 mph - N/A   Unknown
10:55 AM 75.4 °F - 63.0 °F 65% 30.18 in 10.0 mi Calm Calm - N/A   Unknown
11:15 AM 76.5 °F - 63.7 °F 64% 30.18 in 10.0 mi South 5.8 mph - N/A   Unknown
11:35 AM 77.2 °F - 63.0 °F 61% 30.20 in 10.0 mi Calm Calm - N/A   Unknown
11:55 AM 77.0 °F - 63.3 °F 63% 30.17 in 10.0 mi SE 3.5 mph - N/A   Unknown
12:15 PM 78.8 °F - 62.8 °F 58% 30.16 in 10.0 mi East 5.8 mph - N/A   Unknown
12:35 PM 79.2 °F - 62.4 °F 56% 30.17 in 10.0 mi East 6.9 mph - N/A   Unknown
12:55 PM 78.8 °F - 62.4 °F 57% 30.15 in 10.0 mi ESE 8.1 mph - N/A   Unknown
1:15 PM 78.4 °F - 63.0 °F 59% 30.15 in 10.0 mi ENE 5.8 mph - N/A   Unknown
1:35 PM 79.5 °F - 63.5 °F 58% 30.16 in 10.0 mi ENE 6.9 mph - N/A   Unknown
1:55 PM 79.3 °F - 63.9 °F 59% 30.15 in 10.0 mi East 6.9 mph - N/A   Unknown
2:39 PM 78.8 °F - 66.2 °F 65% 30.16 in 10.0 mi ENE 6.9 mph - N/A   Unknown
2:59 PM 80.6 °F 82.7 °F 66.2 °F 61% 30.13 in 10.0 mi ESE 9.2 mph - N/A   Unknown
3:22 PM 78.8 °F - 62.6 °F 57% 30.10 in 10.0 mi SE 12.7 mph 17.3 mph N/A   Unknown
3:59 PM 78.8 °F - 62.6 °F 57% 30.11 in 10.0 mi ESE 9.2 mph - N/A   Unknown
4:19 PM 78.8 °F - 62.6 °F 57% 30.14 in 10.0 mi ENE 6.9 mph - N/A Rain Light Rain
4:39 PM 78.8 °F - 64.4 °F 61% 30.12 in 10.0 mi East 8.1 mph - N/A   Unknown
4:59 PM 78.8 °F - 64.4 °F 61% 30.11 in 10.0 mi East 8.1 mph - N/A   Unknown
5:19 PM 78.8 °F - 62.6 °F 57% 30.10 in 10.0 mi SE 8.1 mph - N/A   Unknown
5:59 PM 75.2 °F - 64.4 °F 69% 30.11 in 10.0 mi ESE 8.1 mph - N/A Rain Light Rain
6:19 PM 75.2 °F - 64.4 °F 69% 30.07 in 10.0 mi ESE 12.7 mph 18.4 mph N/A   Unknown
6:39 PM 75.2 °F - 64.4 °F 69% 30.06 in 10.0 mi SE 11.5 mph - N/A   Unknown
6:59 PM 75.2 °F - 64.4 °F 69% 30.04 in 10.0 mi SSE 11.5 mph - N/A Rain Light Rain
7:19 PM 75.2 °F - 62.6 °F 65% 30.04 in 10.0 mi SSE 4.6 mph - N/A   Unknown
7:40 PM 77.0 °F - 62.6 °F 61% 30.05 in 10.0 mi SSE 5.8 mph - N/A   Unknown
7:59 PM 75.2 °F - 62.6 °F 65% 30.02 in 10.0 mi ESE 6.9 mph - N/A   Unknown
8:20 PM 75.2 °F - 64.4 °F 69% 30.03 in 10.0 mi SE 5.8 mph - N/A   Unknown
8:40 PM 75.2 °F - 62.6 °F 65% 30.02 in 10.0 mi SE 5.8 mph - N/A   Unknown
9:00 PM 75.2 °F - 62.6 °F 65% 30.02 in 10.0 mi SSE 5.8 mph - N/A   Unknown
9:19 PM 73.4 °F - 62.6 °F 69% 30.02 in 10.0 mi ESE 4.6 mph - N/A   Unknown
9:40 PM 73.4 °F - 62.6 °F 69% 30.02 in 10.0 mi SE 5.8 mph - N/A   Unknown
10:00 PM 73.4 °F - 62.6 °F 69% 30.02 in 10.0 mi SSE 8.1 mph - N/A   Unknown
10:20 PM 75.2 °F - 62.6 °F 65% 30.00 in 10.0 mi SSE 9.2 mph - N/A   Unknown
11:21 PM 73.4 °F - 62.6 °F 69% 29.99 in 10.0 mi SSE 5.8 mph - N/A   Unknown